N1KM-15 Weather Reports


time (UTC)temp
C
wind
direction
speed
KPH
gust
KPH
rain 1hr
cm
rain 24hr
cm
rain mn
cm
humidity
%
barometer
mb
20260507090000 10 66 0.0 0.0 0.00 0.00 0.41 97 1005.1
20260507084500 10 352 0.0 4.8 0.00 0.00 0.36 97 1005.6
20260507083000 11 147 0.0 1.6 0.00 0.00 0.30 97 1005.3
20260507081500 11 311 3.2 1.6 0.00 0.00 0.30 97 1005.1
20260507080000 11 0 0.0 0.0 0.00 0.00 0.25 97 1005.0
20260507074500 11 193 3.2 0.0 0.00 0.00 0.13 97 1005.2
20260507073000 11 15 0.0 1.6 0.00 0.00 0.00 97 1004.5
20260507071500 11 0 0.0 0.0 0.00 0.00 0.00 97 1004.2
20260507070000 11 144 0.0 3.2 0.00 0.00 0.00 97 1003.9
20260507064500 11 97 0.0 1.6 0.00 0.00 0.00 97 1004.0
20260507063000 11 140 0.0 1.6 0.00 0.00 0.00 97 1004.3
20260507061501 11 144 0.0 4.8 0.00 0.00 0.00 97 1004.4
20260507060000 11 119 3.2 3.2 0.00 0.00 0.00 97 1004.3
20260507054500 11 131 3.2 3.2 0.00 0.00 0.00 97 1004.8
20260507053000 11 100 1.6 1.6 0.00 0.00 0.00 97 1004.8
20260507051500 11 211 0.0 0.0 0.00 0.00 0.00 97 1005.1
20260507050000 11 38 0.0 1.6 0.00 0.00 0.00 97 1005.4
20260507044500 11 105 1.6 1.6 0.00 0.00 0.00 97 1005.3
20260507043000 11 137 3.2 1.6 0.00 0.00 0.00 97 1005.2
20260507041500 11 147 1.6 4.8 0.00 0.00 0.00 97 1005.1
20260507040000 11 134 3.2 3.2 0.00 0.00 0.23 96 1005.5
20260507034500 11 189 0.0 3.2 0.00 0.00 0.23 96 1005.4
20260507033000 11 161 0.0 1.6 0.00 0.00 0.23 96 1005.5
20260507031500 11 203 4.8 4.8 0.00 0.00 0.23 96 1005.6
20260507030000 11 166 3.2 6.4 0.00 0.00 0.23 96 1005.4
20260507024500 11 184 0.0 4.8 0.00 0.00 0.23 96 1005.5
20260507023000 11 173 0.0 4.8 0.00 0.00 0.23 96 1005.3
20260507021500 12 184 6.4 6.4 0.00 0.00 0.23 95 1005.7
20260507020000 12 156 1.6 3.2 0.00 0.00 0.23 95 1005.5
20260507014501 12 158 1.6 1.6 0.00 0.00 0.23 95 1005.5
20260507013000 12 181 1.6 4.8 0.00 0.00 0.23 95 1005.7
20260507011500 12 142 1.6 4.8 0.00 0.00 0.23 95 1005.9
20260507010000 12 159 0.0 3.2 0.00 0.00 0.23 96 1006.1
20260507004500 12 168 4.8 8.0 0.00 0.00 0.23 96 1006.1
20260507003000 12 184 3.2 3.2 0.00 0.00 0.23 96 1005.9
20260507001500 12 147 1.6 1.6 0.00 0.00 0.23 96 1006.0
20260507000000 12 203 3.2 6.4 0.00 0.00 0.23 96 1006.0
20260506234500 12 143 3.2 4.8 0.00 0.00 0.23 96 1006.0
20260506233000 12 174 3.2 6.4 0.00 0.00 0.23 97 1005.9
20260506231500 11 187 4.8 14.5 0.00 0.00 0.23 96 1006.0
20260506230000 11 177 3.2 11.3 0.00 0.00 0.20 96 1005.9
20260506224500 11 132 4.8 9.7 0.00 0.00 0.20 96 1005.9
20260506223000 11 151 3.2 9.7 0.00 0.00 0.18 96 1005.9
20260506221500 11 176 4.8 8.0 0.00 0.00 0.18 95 1006.0
20260506220000 11 109 3.2 8.0 0.00 0.00 0.15 95 1006.3
20260506214500 11 145 8.0 11.3 0.00 0.00 0.10 95 1006.7
20260506213000 11 188 11.3 9.7 0.00 0.00 0.10 94 1006.6
20260506211500 11 158 3.2 11.3 0.00 0.00 0.10 94 1006.8
20260506210000 11 149 6.4 11.3 0.00 0.00 0.10 93 1006.9
20260506203000 11 208 8.0 9.7 0.00 0.00 0.05 92 1007.1
20260506201500 12 182 8.0 16.1 0.00 0.00 0.08 91 1007.3
20260506200000 12 152 8.0 11.3 0.00 0.00 0.08 91 1007.4
20260506194500 12 0 0.0 9.7 0.00 0.00 0.08 91 1007.4
20260506193000 13 179 1.6 8.0 0.00 0.00 0.00 88 1007.6
20260506191500 15 162 4.8 16.1 0.00 0.00 0.00 83 1007.6
20260506190000 15 188 6.4 9.7 0.00 0.00 0.00 81 1007.5
20260506184500 14 127 4.8 12.9 0.00 0.00 0.00 82 1007.7
20260506183000 14 206 3.2 12.9 0.00 0.00 0.00 82 1007.8
20260506181500 15 187 9.7 8.0 0.00 0.00 0.00 81 1008.0
20260506180000 14 168 4.8 6.4 0.00 0.00 0.00 82 1008.0
20260506174500 15 152 6.4 11.3 0.00 0.00 0.00 80 1008.4
20260506173000 15 130 1.6 14.5 0.00 0.00 0.00 79 1008.6
20260506171500 16 276 1.6 8.0 0.00 0.00 0.00 77 1008.6
20260506170000 16 268 3.2 17.7 0.00 0.00 0.00 78 1008.8
20260506164500 16 182 3.2 11.3 0.00 0.00 0.00 77 1008.4
20260506163000 15 138 3.2 14.5 0.00 0.00 0.00 80 1009.0
20260506161500 15 169 11.3 20.9 0.00 0.00 0.00 79 1009.2
20260506160000 16 198 9.7 9.7 0.00 0.00 0.00 77 1009.6
20260506154500 16 214 6.4 16.1 0.00 0.00 0.00 75 1009.3
20260506153000 16 148 6.4 9.7 0.00 0.00 0.00 77 1009.3
20260506151500 15 146 6.4 11.3 0.00 0.00 0.00 79 1009.4
20260506150000 15 172 8.0 12.9 0.00 0.00 0.00 78 1009.3
20260506144500 15 128 6.4 11.3 0.00 0.00 0.00 80 1008.9
20260506143000 15 159 8.0 12.9 0.00 0.00 0.00 80 1009.2
20260506141500 15 219 4.8 11.3 0.00 0.00 0.00 80 1009.4
20260506140000 15 186 8.0 14.5 0.00 0.00 0.00 80 1009.0
20260506134500 15 190 11.3 9.7 0.00 0.00 0.00 80 1009.4
20260506133000 15 176 8.0 11.3 0.00 0.00 0.00 81 1009.4
20260506131500 15 143 6.4 12.9 0.00 0.00 0.00 82 1009.5
20260506130000 14 144 6.4 14.5 0.00 0.00 0.00 82 1009.7
20260506124500 14 178 1.6 9.7 0.00 0.00 0.00 83 1009.5
20260506123000 14 199 6.4 14.5 0.00 0.00 0.00 83 1009.2
20260506121500 14 185 8.0 4.8 0.00 0.00 0.00 85 1009.5
20260506120000 13 184 3.2 8.0 0.00 0.00 0.00 86 1009.7
20260506114500 13 167 3.2 9.7 0.00 0.00 0.00 88 1009.9
20260506113000 13 217 6.4 16.1 0.00 0.00 0.00 89 1010.1
20260506111500 12 176 6.4 6.4 0.00 0.00 0.00 90 1010.2
20260506110000 12 196 8.0 8.0 0.00 0.00 0.00 90 1010.2
20260506104500 12 189 3.2 14.5 0.00 0.00 0.00 90 1010.0
20260506103000 12 153 4.8 11.3 0.00 0.00 0.00 90 1010.1
20260506101500 12 180 4.8 9.7 0.00 0.00 0.00 91 1010.0
20260506100000 12 188 1.6 8.0 0.00 0.00 0.00 91 1010.0
20260506094500 12 106 4.8 11.3 0.00 0.00 0.00 92 1009.9
20260506093000 12 187 6.4 9.7 0.00 0.00 0.00 92 1010.0
20260506091500 12 209 3.2 9.7 0.00 0.00 0.00 92 1010.0